Temp
1 -0 -1 -1 -2 -2 -3 -4 -5 -5 -4 0 2 5 5 5 7 8 7 10 10 11 10 10 9 10 9 8 7 6 6 6 5 6 6 6 4 4
0 -0 -0 -1 -2 -2 -3 -4 -5 -5 -5 -3 1 3 4 4 5 7 7 7 9 11 10 10 9 9 9 8 7 6 6 5 6 6 6 6 5 6
-0 -1 -1 -1 -2 -2 -3 -3 -5 -5 -5 -4 -3 0 2 3 5 5 7 6 9 11 10 10 9 9 9 8 7 6 6 5 6 6 6 5 6 7
-2 -2 -2 -2 -2 -3 -4 -4 -4 -5 -5 -5 -5 -2 -0 2 3 5 6 6 7 10 10 10 9 9 9 8 7 6 6 5 6 5 6 5 7 7
-3 -3 -3 -3 -3 -3 -4 -5 -5 -5 -6 -6 -5 -6 -2 -0 2 3 5 6 6 9 10 10 9 9 9 9 7 6 5 4 6 5 5 6 8 7
-4 -4 -4 -4 -4 -4 -5 -6 -6 -6 -6 -6 -6 -6 -5 -2 -1 1 4 4 5 6 9 9 9 9 9 9 8 7 5 4 5 5 5 7 8 7
-5 -4 -5 -5 -5 -5 -6 -6 -7 -7 -7 -7 -6 -6 -6 -4 -4 -0 1 4 6 6 7 9 9 9 8 8 8 7 6 4 5 5 7 8 7 7
-7 -6 -5 -6 -6 -7 -7 -7 -7 -7 -7 -7 -7 -7 -6 -5 -5 -3 -2 1 5 6 7 9 9 9 8 8 8 7 6 4 4 5 7 8 7 7
-8 -7 -7 -6 -7 -8 -8 -8 -7 -7 -7 -7 -7 -7 -7 -6 -5 -5 -4 -2 2 5 3 6 8 8 8 8 8 8 7 5 4 5 6 7 7 7
-8 -9 -8 -8 -8 -8 -8 -8 -8 -8 -8 -8 -7 -7 -7 -6 -6 -5 -4 -3 -0 3 3 4 8 8 8 8 8 8 7 6 4 5 7 7 6 6
-9 -9 -9 -10 -9 -9 -9 -8 -8 -8 -8 -8 -8 -7 -7 -7 -6 -5 -4 -4 -2 3 2 3 6 8 8 7 8 7 7 7 6 6 8 7 7 6
-9 -9 -9 -9 -9 -9 -9 -8 -8 -8 -8 -8 -7 -8 -7 -7 -6 -5 -5 -4 -4 -0 2 3 6 7 7 7 8 7 7 7 7 7 8 7 6 5
-10 -9 -9 -10 -9 -8 -8 -8 -8 -8 -8 -8 -7 -7 -7 -7 -7 -6 -5 -4 -4 -3 1 0 3 7 7 6 7 7 6 6 6 6 6 7 6 6
-9 -9 -9 -9 -9 -9 -9 -8 -8 -8 -8 -7 -7 -7 -7 -7 -7 -6 -6 -5 -4 -4 -1 -1 0 1 7 6 5 7 7 6 6 6 5 6 6 6
-9 -9 -9 -9 -9 -9 -8 -8 -8 -8 -8 -8 -7 -7 -7 -7 -7 -7 -7 -6 -5 -4 -1 -1 -1 0 3 6 5 5 5 6 6 6 5 5 5 5
-9 -9 -9 -9 -9 -9 -9 -8 -8 -8 -8 -8 -8 -7 -7 -7 -7 -7 -7 -5 -5 -4 -1 -1 -0 -0 4 6 6 5 5 4 5 5 5 6 4 5
-8 -9 -9 -9 -9 -9 -9 -9 -8 -8 -8 -8 -8 -8 -7 -6 -7 -7 -7 -6 -6 -4 -2 -1 -0 1 4 6 6 7 5 5 5 5 5 5 5 5
-9 -9 -8 -9 -9 -9 -9 -8 -8 -8 -8 -8 -8 -8 -7 -6 -6 -7 -7 -6 -6 -4 -3 -1 -0 2 4 5 6 7 5 6 6 6 5 5 4 5
-9 -9 -9 -9 -9 -9 -8 -8 -8 -8 -8 -8 -8 -8 -7 -6 -6 -6 -6 -6 -5 -4 -3 -2 -0 2 4 4 4 6 7 5 6 5 6 6 6 6
-10 -10 -10 -9 -9 -9 -9 -8 -8 -8 -8 -8 -8 -8 -8 -7 -7 -6 -6 -6 -6 -5 -4 -2 -0 1 3 3 4 4 5 7 7 7 5 6 6 6
-10 -10 -10 -9 -9 -9 -9 -8 -8 -8 -8 -8 -8 -8 -8 -7 -7 -6 -6 -6 -6 -5 -5 -3 -1 1 1 2 3 4 4 6 9 8 7 5 5 4
-10 -10 -10 -9 -9 -9 -9 -8 -8 -8 -8 -8 -8 -8 -8 -8 -7 -7 -6 -6 -6 -6 -5 -5 -2 -1 1 1 2 3 4 4 5 5 7 8 7 3
-11 -10 -10 -10 -10 -9 -9 -9 -8 -8 -8 -8 -8 -7 -8 -8 -7 -7 -6 -6 -6 -6 -6 -5 -4 -3 -0 1 2 3 3 3 4 4 3 5 7 7
Height
1472 1471 1470 1469 1468 1469 1468 1468 1465 1462 1453 1449 1449 1448 1447 1446 1447 1450 1447 1456 1464 1464 1476 1486 1496 1501 1510 1519 1525 1531 1536 1542 1547 1552 1554 1556 1558 1561
1466 1465 1463 1462 1461 1461 1461 1462 1461 1460 1455 1448 1446 1444 1443 1441 1443 1445 1442 1439 1446 1453 1466 1477 1488 1496 1502 1513 1520 1526 1532 1538 1543 1548 1552 1554 1557 1560
1462 1460 1458 1458 1455 1454 1454 1454 1455 1456 1450 1443 1442 1441 1438 1437 1436 1438 1443 1439 1440 1448 1459 1468 1480 1489 1497 1506 1515 1521 1528 1534 1540 1545 1549 1553 1555 1558
1454 1453 1452 1451 1449 1448 1447 1447 1447 1449 1447 1441 1439 1435 1434 1433 1432 1431 1432 1433 1431 1436 1448 1458 1470 1480 1491 1499 1510 1517 1523 1530 1535 1542 1547 1550 1553 1557
1446 1446 1445 1444 1443 1442 1442 1441 1442 1442 1441 1439 1434 1433 1429 1430 1430 1430 1432 1430 1431 1430 1437 1450 1462 1472 1483 1493 1504 1511 1518 1525 1531 1538 1544 1547 1550 1555
1438 1438 1438 1436 1435 1435 1434 1435 1436 1435 1435 1433 1431 1429 1425 1425 1426 1426 1425 1421 1422 1424 1429 1442 1454 1465 1478 1487 1497 1506 1512 1520 1527 1534 1540 1544 1548 1553
1429 1429 1429 1429 1429 1427 1427 1427 1429 1428 1428 1426 1425 1424 1420 1418 1423 1422 1417 1412 1418 1421 1424 1432 1446 1458 1472 1481 1490 1499 1507 1516 1522 1529 1535 1542 1546 1551
1419 1420 1420 1420 1420 1421 1422 1422 1423 1422 1420 1420 1419 1418 1415 1415 1414 1412 1411 1415 1415 1426 1421 1428 1438 1447 1459 1471 1482 1492 1502 1511 1518 1525 1531 1538 1543 1548
1410 1410 1410 1411 1412 1412 1412 1413 1414 1414 1414 1413 1411 1411 1411 1409 1413 1412 1412 1413 1409 1414 1413 1421 1428 1438 1450 1462 1475 1484 1495 1505 1513 1520 1527 1535 1540 1546
1400 1401 1401 1401 1403 1404 1404 1404 1403 1404 1405 1405 1403 1403 1405 1407 1404 1406 1405 1405 1404 1408 1415 1416 1418 1427 1441 1453 1468 1478 1488 1497 1505 1514 1522 1530 1537 1543
1390 1391 1392 1391 1392 1395 1396 1396 1394 1394 1396 1397 1397 1396 1396 1400 1403 1400 1398 1402 1397 1399 1410 1414 1415 1417 1431 1445 1459 1471 1483 1491 1499 1509 1516 1525 1532 1540
1381 1380 1381 1383 1383 1386 1386 1386 1385 1385 1387 1388 1389 1389 1389 1390 1393 1394 1395 1395 1397 1392 1401 1407 1405 1404 1424 1436 1449 1463 1475 1486 1494 1504 1511 1519 1526 1533
1370 1370 1371 1373 1374 1376 1378 1377 1376 1379 1379 1380 1379 1381 1381 1381 1383 1386 1388 1390 1391 1389 1392 1398 1395 1399 1410 1420 1438 1452 1463 1477 1488 1499 1506 1514 1520 1525
1361 1361 1362 1364 1365 1366 1368 1368 1369 1371 1371 1370 1371 1372 1373 1374 1376 1378 1380 1382 1383 1385 1388 1392 1389 1389 1399 1409 1421 1439 1453 1467 1478 1487 1498 1506 1515 1523
1355 1354 1354 1355 1356 1357 1358 1359 1361 1361 1362 1363 1362 1364 1368 1368 1369 1370 1371 1374 1376 1377 1381 1383 1386 1384 1387 1394 1404 1422 1439 1454 1468 1479 1487 1492 1501 1512
1348 1347 1347 1347 1348 1348 1349 1350 1352 1353 1353 1354 1356 1357 1360 1362 1363 1363 1365 1365 1369 1370 1375 1378 1377 1378 1379 1386 1397 1414 1427 1436 1455 1468 1479 1487 1495 1504
1339 1338 1337 1338 1338 1339 1340 1341 1343 1344 1346 1347 1348 1350 1351 1352 1355 1356 1360 1363 1363 1364 1367 1371 1373 1373 1373 1378 1388 1402 1417 1433 1446 1458 1469 1477 1486 1492
1331 1330 1328 1329 1329 1330 1332 1333 1334 1335 1336 1339 1340 1342 1345 1347 1348 1351 1353 1354 1356 1357 1362 1366 1370 1371 1369 1379 1388 1391 1408 1422 1435 1449 1460 1468 1477 1484
1322 1321 1320 1321 1321 1322 1323 1325 1326 1327 1329 1330 1333 1335 1338 1340 1341 1343 1345 1348 1351 1354 1358 1359 1363 1364 1365 1371 1378 1386 1394 1411 1424 1438 1449 1458 1466 1474
1314 1313 1312 1312 1312 1313 1315 1316 1318 1320 1322 1323 1326 1328 1331 1333 1337 1337 1341 1343 1345 1350 1352 1354 1358 1362 1366 1370 1374 1382 1393 1397 1412 1427 1440 1455 1466 1476
1307 1306 1305 1305 1304 1305 1306 1308 1310 1312 1315 1317 1318 1322 1326 1329 1329 1331 1336 1337 1341 1345 1348 1348 1353 1359 1366 1371 1376 1382 1388 1398 1405 1416 1429 1442 1452 1460
1302 1301 1299 1299 1298 1298 1299 1301 1303 1306 1308 1310 1311 1314 1317 1320 1325 1327 1331 1337 1340 1340 1342 1347 1350 1357 1363 1369 1374 1379 1385 1393 1404 1413 1421 1428 1434 1442
1298 1296 1294 1293 1293 1293 1293 1294 1297 1299 1302 1303 1306 1308 1313 1315 1319 1323 1328 1331 1330 1334 1340 1343 1349 1355 1360 1366 1374 1377 1383 1390 1397 1407 1416 1423 1432 1440
Wind_Speed
23 22 21 20 20 20 20 21 22 25 31 29 24 19 20 14 10 23 10 47 47 57 54 52 49 44 46 43 40 40 37 34 31 28 25 23 21 19
25 25 24 23 22 21 21 22 23 27 32 34 36 34 29 30 13 14 20 22 56 75 60 59 53 49 48 46 44 42 39 36 33 31 27 24 23 19
26 27 26 25 25 23 22 23 25 27 34 42 40 36 34 32 26 16 20 20 48 61 63 60 56 52 50 49 46 44 41 38 35 32 30 27 24 20
29 29 29 27 27 26 24 25 26 29 33 40 42 38 35 30 29 25 32 23 12 67 69 64 61 55 52 51 48 45 43 41 37 34 32 29 25 22
31 30 31 29 29 28 27 27 27 29 31 35 41 36 35 30 27 22 32 35 16 52 78 68 63 57 55 52 50 47 47 43 40 36 34 31 26 23
33 32 32 32 30 30 30 29 28 30 31 33 37 37 33 30 26 24 29 30 30 13 57 71 61 57 59 54 53 50 49 45 41 39 36 31 28 25
34 32 32 32 31 31 29 29 28 29 31 32 35 34 34 33 27 23 23 30 24 26 18 66 65 64 62 57 54 52 48 48 44 42 38 33 30 26
36 34 33 33 31 28 26 26 28 31 33 33 34 32 33 31 27 25 26 21 32 29 24 64 74 70 68 64 57 54 49 48 46 44 40 35 32 28
38 36 34 34 30 29 30 26 28 29 31 34 37 37 34 32 27 23 25 20 28 36 11 24 68 70 70 66 60 54 52 48 48 46 42 38 34 31
38 38 36 36 35 32 32 31 31 32 32 32 35 38 36 34 31 29 29 30 31 38 35 19 54 68 71 68 63 58 55 50 47 48 43 40 37 33
37 36 35 35 35 27 29 32 34 34 31 29 28 29 34 30 28 27 29 30 31 34 36 33 27 62 70 71 66 62 55 50 48 45 45 43 39 35
34 34 32 30 30 27 28 32 34 35 32 31 30 29 28 28 29 27 28 28 28 29 19 22 29 55 45 67 68 66 59 51 46 40 44 45 42 40
34 35 34 29 27 28 27 30 34 30 32 29 30 28 28 29 33 34 30 27 26 28 21 24 5 47 49 56 71 68 65 59 53 43 37 46 45 44
33 33 33 29 26 26 27 29 28 27 29 33 32 31 32 30 28 27 37 39 37 34 25 20 27 4 42 55 59 72 70 64 61 53 43 44 47 44
28 30 30 27 25 25 26 26 25 27 29 32 34 34 28 30 26 23 23 29 37 40 32 28 30 17 25 62 60 69 71 71 66 58 50 48 54 50
24 26 28 28 30 29 29 29 29 28 29 32 34 30 30 27 27 23 21 22 31 37 36 29 25 15 29 64 68 67 70 64 72 65 56 49 52 54
29 30 30 24 23 26 27 30 31 28 31 28 31 32 32 30 27 22 22 20 24 29 30 27 22 13 27 57 69 78 74 65 73 70 62 58 53 53
27 28 26 31 33 33 29 28 26 23 29 29 29 29 29 29 27 22 19 20 22 26 28 26 18 11 25 49 67 75 73 76 72 72 67 63 58 55
26 28 29 29 31 30 28 27 27 26 22 27 28 27 29 28 25 23 21 21 15 18 26 24 19 10 30 39 44 66 80 68 74 72 72 68 63 60
22 24 26 28 27 28 28 29 26 23 23 24 28 26 30 28 27 25 22 22 27 23 23 20 21 18 16 32 32 57 67 78 76 73 74 69 63 56
19 19 21 22 21 24 25 24 24 25 24 24 26 27 25 29 28 25 22 18 21 25 28 29 24 22 21 12 29 51 56 66 69 76 74 71 68 60
16 17 17 18 18 21 19 22 22 25 23 23 26 26 23 23 29 29 24 22 20 20 21 24 25 26 27 24 14 43 52 56 62 67 69 72 69 59
16 15 15 16 16 17 19 21 21 21 23 22 22 25 23 22 24 29 24 20 18 18 19 21 26 21 30 29 21 27 48 48 53 55 54 59 66 67
Wind_Direction
308 307 303 303 298 294 287 283 284 295 304 300 288 255 261 288 235 247 260 214 216 204 198 203 200 197 194 194 190 189 182 182 182 177 173 164 161 161
303 301 302 301 297 294 289 283 277 275 279 286 291 288 281 278 283 251 283 312 214 212 203 198 200 195 195 195 192 190 184 183 182 180 174 168 166 163
295 293 293 294 291 291 288 281 273 274 274 287 292 293 290 287 276 259 278 333 209 211 202 199 199 196 194 196 195 191 186 185 183 181 174 172 170 164
290 288 287 287 287 287 284 282 276 270 271 279 289 293 291 287 284 272 267 279 240 204 202 198 198 194 195 196 197 194 188 187 184 182 176 177 175 170
287 284 284 282 281 280 278 275 275 273 272 275 283 288 289 289 282 257 251 266 285 200 204 199 195 193 194 199 197 198 188 190 185 184 179 181 176 175
282 279 279 279 279 278 276 272 271 269 269 272 279 284 287 289 283 273 251 265 268 276 197 196 195 196 196 199 198 199 192 191 188 184 185 183 178 180
275 274 274 275 278 277 271 270 267 266 268 269 274 279 281 286 286 266 266 265 258 265 218 192 196 195 196 198 200 200 201 192 191 188 187 184 182 183
275 274 273 274 273 268 264 264 265 268 266 265 269 272 278 282 287 280 268 274 252 251 219 189 196 193 195 196 198 198 202 199 193 191 191 184 185 186
272 272 271 269 268 268 270 261 258 259 259 263 268 266 270 274 280 276 265 266 248 247 275 208 191 193 196 197 196 199 201 204 196 193 192 186 187 188
264 267 268 267 265 262 265 269 265 261 257 254 252 260 266 270 272 274 268 263 248 244 248 286 191 188 195 198 197 198 201 203 207 196 193 188 189 191
264 266 265 264 265 261 259 261 265 266 266 264 262 263 260 260 265 273 267 264 264 246 245 261 234 182 191 194 196 198 199 204 210 206 194 191 190 192
268 268 265 258 265 263 257 256 258 262 266 267 269 263 253 249 249 248 259 258 260 261 254 279 230 170 175 191 196 195 196 203 212 210 200 194 192 193
269 269 271 268 261 258 255 257 259 263 262 261 267 266 263 255 247 242 241 247 255 250 234 285 232 175 178 175 195 195 195 196 203 209 204 200 197 197
270 271 271 271 265 260 257 254 254 254 254 258 257 258 258 260 259 252 242 243 247 250 242 242 270 267 180 176 180 192 195 197 199 202 199 199 203 202
271 273 273 267 263 259 256 255 253 249 249 249 258 253 254 258 264 261 253 249 249 250 243 243 259 258 196 180 179 186 187 197 199 199 196 195 200 202
272 268 264 263 260 260 258 255 250 250 251 251 249 259 257 256 254 258 251 253 250 249 240 237 252 276 194 183 184 182 186 187 198 200 198 196 200 205
279 268 260 258 252 251 252 254 255 254 246 248 249 247 254 251 252 250 240 243 244 247 242 238 246 254 188 181 182 190 188 189 198 199 199 200 201 204
274 273 271 267 261 260 264 257 255 256 251 246 249 242 245 243 245 244 235 239 243 243 240 240 236 223 177 176 189 186 189 194 196 200 201 203 203 204
272 269 268 264 262 261 263 263 260 256 256 244 243 243 239 241 237 236 231 220 212 225 238 231 222 206 164 169 177 189 189 188 195 200 203 205 207 207
279 273 269 267 265 261 260 257 259 257 250 246 242 242 236 237 239 234 232 228 225 224 225 219 209 199 183 172 175 184 194 195 198 202 203 207 214 216
293 284 273 272 268 257 257 256 253 251 248 245 241 236 231 227 236 235 232 231 233 231 227 224 204 191 197 184 186 187 188 204 206 206 205 205 207 212
297 289 290 279 268 267 260 254 252 249 243 241 241 234 233 228 227 236 231 224 219 226 222 215 219 201 191 199 192 186 187 197 208 209 213 212 207 205
309 300 292 280 270 270 257 256 254 246 240 239 239 231 228 230 224 229 222 234 230 225 226 214 202 204 199 196 193 191 190 194 198 199 202 212 219 223